Location: Keppel Henge
(44.7900°N, 80.9447°W)
Time: 21:09:55
(UTC-04:00)

Vanguard 1 Rocket - Visible Passes

Search period start: 26 April 2018 00:00
Search period end: 06 May 2018 00:00
Orbit: 654 x 4223 km, 34.3° (Epoch: 25 April)

Date Brightness Start Highest point End Pass type
(mag) Time Alt. Az. Time Alt. Az. Time Alt. Az.
26 Apr 11.2 05:14:18 10° SSW 05:33:25 30° SSE 05:46:49 10° E visible
27 Apr 11.4 04:03:44 10° S 04:20:13 22° SE 04:33:22 10° E visible
28 Apr 11.6 02:56:53 10° SSE 03:07:11 14° SE 03:16:31 10° ESE visible
28 Apr 11.0 05:14:45 10° SSW 05:35:54 36° SSE 05:50:30 10° E visible
29 Apr 11.3 04:03:35 10° S 04:22:31 28° SE 04:37:39 10° E visible
30 Apr 11.5 02:56:16 12° SSE 03:09:19 19° SE 03:22:45 10° E visible
30 Apr 10.9 05:15:42 10° SW 05:38:21 42° SSE 05:53:56 10° E visible
01 May 11.6 01:52:05 10° SE 01:56:31 11° SE 02:00:50 10° ESE visible
01 May 11.1 04:06:08 14° SSW 04:24:46 34° SE 04:41:24 10° E visible
02 May 11.3 02:58:40 17° S 03:11:22 25° SE 03:27:24 10° E visible
02 May 10.8 05:17:01 10° SW 05:40:47 48° SSE 05:57:12 10° E visible
03 May 11.5 01:51:08 14° SSE 01:58:25 16° SE 02:10:19 10° E visible
03 May 11.0 04:08:22 17° SSW 04:26:58 40° SSE 04:44:50 10° E visible
04 May 11.2 03:00:46 21° S 03:13:21 31° SE 03:31:19 10° E visible
04 May 10.8 05:18:37 10° SW 05:43:11 53° SSE 06:00:20 10° E visible
05 May 11.3 01:53:05 19° SSE 02:00:13 21° SE 02:15:45 10° E visible
05 May 10.9 04:10:18 19° SSW 04:29:09 46° SSE 04:48:04 10° E visible
